Dewpoint
-1 3 3 1 -3 -2 -3 -2 -4 -1 -0 2 5 6 7 5 9 11 13 13 13 14 15 15 15 14 13 13 12 11 11 12 10 -5 -3 8 9 10 12 12 13 14 8 6 0 -4 -6 -4 -1
5 4 3 1 -2 -2 -5 -3 -2 -3 -1 1 2 2 3 3 5 12 13 13 13 14 15 15 15 15 14 13 13 13 14 13 11 3 -4 9 13 12 12 12 13 14 10 7 2 -2 -4 -2 0
5 4 1 1 -1 -5 -2 -3 -3 -5 -4 -2 -0 0 1 1 5 12 13 14 14 14 15 15 14 14 14 13 12 14 15 13 11 7 -6 5 12 12 11 14 14 13 9 6 4 -0 -4 -2 1
4 2 -0 0 1 -3 -5 -3 -5 -6 -6 -2 -1 -0 1 2 5 12 14 14 14 14 15 15 14 14 14 13 12 14 15 14 12 10 -1 -0 10 12 11 13 13 10 8 6 4 -0 -3 -1 0
2 -0 -2 0 -1 -4 -3 -5 -5 -5 -5 -0 -1 -0 1 4 7 13 14 14 14 14 14 15 14 14 14 13 13 13 13 14 12 11 6 -1 6 12 11 11 11 10 7 5 3 -1 -3 -1 -0
1 -3 -3 -1 -5 -4 -4 -4 -4 -5 -5 -4 0 -0 0 2 5 9 14 14 14 14 14 14 14 14 14 13 13 12 12 13 12 11 9 9 1 10 12 11 11 10 8 4 2 -2 -3 -2 -0
-1 -3 -3 -4 -4 -3 -3 -4 -4 -4 -5 -5 -1 -0 -0 0 3 6 11 14 14 14 15 14 14 15 14 13 13 13 12 12 12 12 11 10 9 4 9 11 11 11 10 6 2 -3 -3 -2 -1
-2 -4 -6 -3 -4 -2 -4 -4 -4 -4 -4 -5 -4 -0 -0 0 2 3 6 11 13 14 15 15 15 15 14 14 13 13 13 13 12 12 11 10 11 11 8 11 11 11 10 8 3 -2 -2 -2 -1
-5 -4 -4 -2 -3 -3 -3 -5 -4 -5 -5 -5 -3 -1 -1 -1 -0 -0 1 3 9 12 13 13 14 14 14 14 13 13 13 13 13 13 12 11 11 11 11 5 10 11 11 9 6 0 -1 -1 -1
-7 -3 -1 -1 -2 -2 -3 -4 -4 -6 -6 -5 -2 -1 -1 -3 -3 -4 -4 -5 -2 2 9 13 13 13 14 14 14 13 14 13 12 13 13 12 11 11 11 11 5 10 11 10 8 3 -0 -0 -1
-4 -2 -1 -1 -3 -3 -4 -5 -5 -5 -7 -6 -5 -4 -4 -4 -4 -4 -4 -5 -6 -7 -8 -1 8 11 13 13 13 14 13 14 14 14 13 13 12 11 11 11 11 6 11 11 10 6 -2 -1 -1
-4 -3 -2 -3 -6 -8 -6 -6 -9 -6 -7 -6 -5 -5 -5 -5 -5 -5 -5 -5 -5 -6 -6 -7 -9 -3 4 9 12 12 14 13 14 14 14 13 13 13 12 11 12 9 7 10 11 9 4 -1 0
-4 -5 -3 -5 -5 -4 -5 -5 -5 -7 -11 -9 -9 -8 -7 -6 -6 -6 -6 -7 -7 -8 -9 -10 -10 -11 -10 -5 -2 3 8 11 13 14 14 14 14 13 13 13 12 12 9 8 10 10 9 2 -1
-4 -5 -4 -4 -5 -6 -6 -5 -6 -8 -8 -8 -8 -8 -7 -8 -8 -8 -8 -8 -10 -10 -10 -10 -10 -10 -11 -11 -11 -9 -5 2 7 11 13 14 14 14 14 14 13 12 12 9 8 11 10 9 2
-5 -5 -5 -5 -5 -6 -9 -9 -7 -8 -7 -8 -8 -8 -9 -9 -9 -9 -10 -9 -9 -10 -11 -11 -10 -9 -8 -9 -10 -11 -12 -10 -5 2 9 12 13 14 14 14 14 13 13 12 12 12 12 12 9
-4 -5 -5 -6 -7 -8 -10 -6 -10 -8 -7 -9 -10 -10 -9 -8 -8 -8 -8 -8 -8 -7 -7 -8 -9 -8 -6 -6 -6 -6 -7 -10 -12 -10 -5 3 10 12 13 13 13 14 13 12 13 13 13 13 11
-2 -2 -4 -5 -7 -9 -10 -9 -10 -9 -8 -9 -8 -7 -7 -7 -7 -7 -7 -6 -6 -7 -6 -7 -7 -4 -2 -3 -4 -4 -5 -6 -8 -11 -13 -9 -2 8 11 13 13 13 14 13 13 12 12 12 13
-1 -4 -7 -8 -4 -4 -5 -6 -6 -6 -6 -6 -6 -5 -4 -3 -3 -2 -2 -3 -4 -5 -4 -4 -3 -2 -2 -2 -2 -3 -4 -5 -6 -7 -8 -12 -12 -6 6 11 13 13 13 14 14 13 12 12 12
-6 -7 -7 -6 -2 -3 -3 -3 -4 -5 -5 -4 -3 -2 -0 -0 -1 -1 -1 -1 -2 -1 -1 -1 -1 -1 -1 -1 -2 -2 -3 -4 -5 -5 -5 -6 -9 -12 -9 2 10 12 13 13 13 14 13 13 13
-3 -4 -3 -4 -2 -2 -2 -2 -5 -5 -3 -1 0 0 0 -1 -1 -2 -2 -2 -2 -2 -2 -2 -2 -2 -2 -2 -2 -2 -2 -3 -4 -5 -5 -6 -6 -7 -11 -10 -2 7 11 13 12 13 13 13 13
-0 -2 -0 -0 -1 -2 -2 -6 -8 -6 -1 1 1 0 0 0 -0 -1 -1 -1 -2 -2 -2 -2 -2 -2 -2 -2 -2 -3 -3 -3 -3 -4 -4 -4 -4 -5 -5 -9 -11 -5 3 10 12 12 12 13 13
0 -1 -1 0 -2 -3 -2 -4 -4 -4 -1 0 0 0 0 1 1 1 2 2 1 1 1 0 0 0 -0 -1 -1 -1 -1 -1 -1 1 -0 -1 -1 -2 -3 -4 -7 -10 -6 1 9 10 13 11 11
-1 -1 -0 -0 -4 -4 -2 -2 -2 -3 -0 -0 1 1 1 2 1 2 3 3 3 3 2 2 2 2 2 2 2 3 3 3 3 3 4 3 1 -0 -1 -1 -4 -6 -9 -5 1 8 9 11 11
-1 -1 -2 -2 -6 -4 -4 -1 -0 -1 0 1 1 1 2 2 2 2 3 2 3 3 2 2 2 2 3 3 3 3 3 3 3 4 4 4 3 2 1 -0 -0 -4 -5 -7 -6 -0 6 9 9
-2 -3 -4 -3 -2 -2 -5 -1 0 -2 1 2 2 2 2 2 2 1 1 3 3 3 3 2 2 2 2 2 2 2 2 3 4 4 3 3 4 3 2 1 1 -1 -3 -2 -4 -6 -2 4 6
-0 -4 -3 -4 -3 -2 -1 1 -1 -3 -1 1 2 2 2 2 2 -1 -1 2 2 2 2 2 2 2 2 3 2 3 4 3 3 3 3 3 4 3 3 2 0 1 -2 -1 -0 -0 -0 -2 -1
1 -1 -0 1 -0 2 -2 -2 -3 1 1 1 2 2 2 3 -0 -2 -2 -2 -0 2 3 2 2 2 2 3 4 5 3 3 3 3 3 3 3 3 3 2 1 1 -1 -2 -1 1 1 3 3
-0 1 3 2 -1 -0 -1 -2 -0 -1 1 0 2 2 2 1 1 -1 -4 -4 -2 -0 1 2 3 3 3 4 4 4 4 3 3 3 4 5 5 5 4 4 3 1 -1 -0 -1 -1 -2 0 3
3 2 2 0 1 0 3 0 -3 -1 0 1 1 1 1 1 -1 -3 -6 -7 -6 -3 -1 1 2 2 3 4 4 5 4 3 5 5 2 1 0 2 3 3 3 0 -1 1 0 2 4 4 4
0 1 1 3 -0 2 2 1 -2 -0 0 1 1 1 0 0 -2 -4 -7 -9 -8 -7 -4 2 2 2 3 5 5 4 4 5 4 4 5 4 3 1 1 2 2 0 -0 1 1 2 2 2 3
Wind_Speed
19 18 17 10 4 5 2 4 2 2 2 5 9 8 10 8 3 2 12 10 8 6 9 10 10 9 7 5 4 5 4 5 6 7 10 11 10 10 8 9 10 13 8 7 8 7 7 7 8
18 19 12 4 5 3 4 4 2 1 5 13 11 7 8 3 5 5 6 5 6 8 7 8 10 10 8 6 5 4 5 5 4 4 7 9 7 7 7 7 13 13 6 5 6 6 5 6 7
16 16 4 4 4 4 4 2 4 3 6 1 5 9 4 3 4 3 2 1 4 7 8 8 9 9 8 7 6 5 6 4 3 3 4 6 8 6 7 12 15 9 4 4 4 4 4 5 5
10 7 5 4 4 2 2 4 3 4 5 6 9 6 6 4 3 4 3 5 5 6 7 6 9 9 8 8 7 6 7 5 2 1 4 6 7 5 7 11 9 5 3 3 2 3 4 5 4
8 4 4 4 2 1 2 1 1 2 4 6 2 3 4 7 7 6 6 6 4 7 8 6 7 8 8 8 8 8 7 7 3 1 3 5 7 5 6 8 6 5 3 2 2 2 4 4 4
4 3 4 3 2 2 3 9 2 4 5 4 7 5 2 6 5 5 5 4 4 6 8 8 7 6 8 8 8 8 8 8 6 5 4 5 7 9 7 7 6 5 3 2 2 3 4 5 4
6 4 5 5 4 3 4 7 4 4 3 7 5 4 6 5 4 3 4 4 5 5 6 8 7 5 7 10 10 10 10 9 8 7 7 7 8 9 10 9 8 7 4 2 3 4 6 6 5
4 4 3 3 3 2 6 3 4 7 4 6 3 4 4 8 4 3 2 2 2 3 5 7 7 8 8 10 12 12 12 10 10 9 9 10 9 9 10 10 9 9 6 4 3 5 6 7 7
3 5 2 2 3 3 5 3 5 5 7 7 5 5 9 9 4 1 0 1 1 4 7 8 8 9 10 10 12 12 14 13 12 12 11 12 12 12 12 11 11 11 9 7 6 6 8 9 9
6 4 4 1 0 2 4 5 3 2 4 6 11 11 9 6 4 4 4 5 5 4 5 8 9 10 12 13 13 13 14 14 15 15 14 14 14 14 14 13 13 13 13 11 9 8 9 11 11
3 4 5 2 3 2 2 3 3 2 1 3 7 5 4 5 5 7 8 10 11 11 11 11 12 15 18 16 16 16 16 14 15 17 17 17 17 17 17 17 16 17 17 16 13 11 11 11 12
6 4 3 5 3 2 3 2 2 2 1 7 2 4 6 8 10 12 14 15 17 19 20 19 19 18 17 19 19 20 18 18 19 19 20 21 20 20 20 20 19 19 20 19 17 14 13 14 14
5 4 5 6 5 5 3 3 4 9 6 8 10 11 13 15 16 16 19 20 21 23 21 20 20 21 23 23 22 21 21 23 23 24 22 22 24 24 23 23 23 22 22 22 20 18 16 15 16
5 10 8 2 4 4 2 2 5 1 1 6 8 7 7 12 14 16 17 20 18 16 16 16 18 18 19 22 24 25 24 24 23 27 26 24 24 27 27 27 27 27 25 24 24 22 19 18 18
8 5 3 4 1 2 4 3 6 3 2 4 8 10 11 13 15 19 20 22 21 22 22 21 20 20 20 21 22 24 27 28 28 28 28 27 26 25 28 31 32 31 29 27 26 25 24 22 22
5 5 3 3 3 3 4 7 4 4 8 10 13 20 25 25 19 18 19 20 19 20 19 19 18 19 20 22 23 23 24 27 31 32 31 30 29 29 28 29 34 35 33 31 31 30 27 26 26
7 2 2 2 8 4 3 6 5 7 12 25 30 28 29 28 20 18 18 20 21 22 20 19 18 17 18 23 24 25 26 27 28 31 34 35 33 32 31 32 30 33 37 36 35 34 32 30 28
4 4 2 1 6 5 3 10 10 24 20 29 31 25 16 10 9 9 9 12 15 18 18 19 21 22 24 27 28 28 28 28 29 30 32 34 36 37 35 34 31 31 33 36 38 37 35 34 31
6 4 3 1 4 4 0 6 17 21 16 17 11 5 6 8 8 9 10 13 16 17 19 20 22 23 26 29 32 34 36 35 36 34 33 32 34 37 39 39 36 32 32 34 36 38 40 36 35
6 4 3 3 4 3 6 13 12 7 3 4 7 5 10 13 12 14 17 20 21 23 25 28 30 32 33 35 35 38 41 43 43 40 38 35 33 35 38 41 41 37 33 31 35 37 38 39 37
5 4 2 0 6 4 8 6 3 3 6 4 5 10 13 18 23 25 27 29 31 33 35 37 38 40 40 40 41 43 45 47 47 44 42 39 34 32 34 37 41 42 38 35 32 36 37 38 38
2 1 2 2 4 2 4 4 5 3 4 2 7 14 17 22 24 25 26 27 28 29 30 32 34 37 38 38 39 38 40 43 43 42 43 42 36 33 32 33 36 41 43 40 35 35 32 37 39
3 1 1 2 4 4 2 3 7 3 4 5 8 15 18 22 20 20 22 25 29 29 28 28 29 29 29 28 28 30 32 33 36 39 39 38 38 33 31 30 33 35 39 43 42 36 35 35 34
2 3 5 4 3 3 3 3 6 4 4 3 8 18 19 20 18 18 22 26 30 31 32 30 29 28 25 25 23 25 27 30 34 34 36 35 34 33 31 29 30 32 34 37 42 42 38 34 36
5 5 3 5 4 5 2 0 9 6 5 4 10 20 19 16 16 20 23 25 21 22 25 29 28 28 27 24 23 23 27 29 30 31 33 33 32 31 29 28 29 32 32 31 33 37 42 39 35
1 5 4 5 2 4 1 6 6 5 10 12 17 19 19 16 14 19 20 22 22 24 25 26 28 28 27 25 23 24 24 24 26 27 28 28 27 27 27 27 28 27 31 28 27 28 29 34 38
2 1 4 0 1 2 3 7 8 4 7 15 17 15 16 12 14 16 18 20 23 24 26 27 25 26 24 21 19 16 18 20 21 21 21 22 24 26 27 25 23 22 23 29 27 26 28 29 29
2 2 2 1 1 4 5 5 6 4 7 7 10 14 11 11 13 14 18 22 24 25 26 28 28 26 23 18 10 12 15 15 16 20 21 19 17 17 17 19 19 18 20 20 23 24 29 25 26
3 2 3 2 3 3 4 6 7 8 7 8 14 14 16 12 14 16 20 22 24 26 29 30 29 26 19 11 7 10 9 11 13 13 10 9 10 12 13 14 16 17 17 14 18 17 17 20 21
4 6 6 3 3 3 2 7 5 9 10 12 19 21 20 17 16 18 20 23 25 27 30 33 27 23 14 6 7 8 8 8 9 8 8 8 7 7 8 10 13 18 18 18 18 20 21 24 26
Wind_Direction
150 153 151 137 72 65 256 256 281 100 59 50 87 115 110 67 52 185 142 163 175 184 171 190 187 186 179 176 173 146 135 110 91 113 130 127 123 124 124 135 138 140 111 90 86 80 91 102 105
146 149 140 106 93 92 258 267 162 73 127 106 88 76 44 72 61 120 152 177 192 186 207 208 195 192 192 189 180 165 132 117 82 99 143 132 111 129 128 135 148 144 116 93 83 84 103 115 118
146 150 118 97 112 162 180 202 168 76 133 203 105 74 82 55 65 110 131 139 173 172 209 195 196 196 196 197 189 195 144 164 89 83 151 145 115 120 115 128 138 139 128 92 77 93 121 126 122
140 131 70 89 158 215 224 160 165 132 79 68 109 59 79 62 80 91 110 142 147 165 193 191 194 199 201 202 197 190 163 194 154 116 158 160 140 147 137 146 148 149 141 117 109 120 139 143 137
127 92 65 82 138 63 69 116 188 97 89 48 117 117 70 84 85 94 111 135 149 163 193 208 196 200 208 208 205 200 189 200 215 228 194 180 166 171 172 172 176 168 152 143 149 149 157 162 151
84 83 71 149 169 73 41 18 82 73 86 79 80 88 93 111 89 89 119 136 157 167 179 200 218 211 211 217 215 215 214 212 228 243 225 207 197 193 202 200 197 191 181 162 170 180 175 177 170
104 82 147 138 141 62 334 7 46 57 51 44 106 86 140 145 126 104 99 130 172 171 186 200 214 226 245 233 223 222 225 228 236 239 236 222 213 215 216 209 213 209 213 206 186 190 189 188 186
91 90 88 12 159 117 337 55 38 56 37 74 64 147 169 161 144 124 83 84 131 206 200 214 221 229 235 246 241 230 227 234 239 242 240 235 227 229 223 219 221 221 226 225 219 200 197 203 200
78 63 96 152 159 147 16 88 40 54 78 63 63 93 124 148 151 143 342 327 199 219 230 249 237 238 244 246 247 247 243 239 239 243 242 240 239 237 239 234 233 230 231 236 235 217 209 211 212
71 85 179 202 103 96 48 79 15 66 82 73 98 111 136 161 187 234 270 284 285 271 251 247 253 259 253 249 246 250 249 253 254 251 250 247 243 242 241 243 242 239 237 243 245 232 218 217 217
80 137 160 77 103 112 70 49 37 66 98 175 145 143 167 205 235 258 278 290 292 290 284 269 252 255 256 259 256 253 252 251 256 257 252 252 249 245 244 244 243 238 238 238 241 241 229 223 222
94 74 126 137 73 49 58 34 331 255 111 159 173 231 241 248 253 266 274 280 286 289 291 288 277 263 253 257 259 257 257 252 252 255 256 254 252 250 248 247 246 247 244 245 244 245 238 229 227
82 121 96 101 70 60 34 23 300 272 258 254 265 261 261 265 271 274 279 281 286 285 288 286 282 273 267 260 258 258 260 259 264 264 259 258 255 253 254 252 249 250 247 246 248 245 245 240 235
105 110 119 96 90 50 33 305 335 208 271 261 264 265 270 280 288 284 287 291 293 293 292 291 285 284 275 270 265 260 256 256 255 263 263 256 259 257 254 254 252 251 249 248 248 248 248 249 243
110 83 83 26 51 69 340 263 234 285 339 313 292 292 297 301 297 297 303 302 299 292 288 282 278 277 281 280 274 269 263 258 254 252 256 258 257 260 262 255 256 251 251 249 246 246 247 244 246
59 51 107 340 27 14 47 270 316 320 311 306 302 299 301 307 310 298 289 283 281 281 282 278 270 272 281 283 278 275 270 264 259 255 252 252 255 253 259 265 259 258 254 252 249 249 246 247 247
18 157 138 101 32 350 50 274 271 348 308 298 299 306 310 304 296 287 288 288 284 282 281 273 264 264 270 275 277 278 276 273 267 260 256 251 250 252 251 255 266 264 260 256 255 254 253 250 249
178 110 55 110 345 10 334 280 291 298 304 296 303 309 315 323 321 312 305 293 283 278 275 271 265 267 270 279 283 284 283 290 288 273 263 257 252 249 250 251 254 263 268 266 258 258 258 257 256
104 94 94 74 10 359 107 279 283 305 299 292 321 51 29 1 336 320 301 287 278 271 269 266 266 262 267 272 277 282 284 289 292 281 273 266 258 252 249 250 249 252 259 264 264 265 262 259 258
58 90 8 284 14 355 349 293 290 311 333 99 91 38 0 344 318 300 296 293 288 281 273 269 267 268 270 274 276 277 280 281 285 283 275 268 266 260 253 250 250 249 251 258 264 265 267 265 259
40 90 46 338 333 43 321 297 328 281 142 113 43 4 346 340 330 320 313 305 298 292 285 280 278 277 275 273 275 274 274 276 277 278 276 271 265 262 258 252 249 249 250 252 253 259 261 264 266
82 46 71 33 45 264 9 274 293 248 263 241 335 340 335 333 329 329 330 328 321 312 302 295 288 286 281 275 272 270 268 270 274 279 276 272 267 264 259 253 249 247 248 248 250 249 260 256 258
177 95 69 89 81 47 326 79 269 272 248 250 310 326 331 334 331 337 341 342 339 331 322 310 303 299 291 277 268 265 264 266 277 281 282 276 269 264 263 257 249 247 246 247 247 250 252 249 266
87 76 44 62 93 16 243 136 277 208 206 253 298 330 332 334 335 342 343 342 337 335 330 325 315 305 295 281 270 268 271 276 278 280 282 279 272 266 263 261 254 247 245 246 248 248 250 254 255
73 52 346 354 12 222 276 26 249 267 232 238 295 313 323 326 334 343 343 337 328 329 330 328 319 310 299 286 279 275 273 275 278 280 283 280 273 267 264 263 257 249 243 247 248 250 250 252 256
112 131 151 215 230 275 333 238 250 227 231 244 278 291 305 315 338 339 334 334 327 333 336 333 327 317 307 296 278 276 275 279 280 281 281 278 273 271 270 268 264 256 245 244 248 249 254 254 255
155 331 181 14 40 296 252 284 293 207 266 264 273 298 299 316 329 330 334 341 349 353 350 345 335 327 315 305 283 274 283 284 283 285 285 284 277 275 272 266 259 253 247 243 248 253 255 257 259
109 234 126 81 285 283 285 278 243 269 256 277 298 286 306 302 313 331 345 348 352 354 352 350 348 336 329 315 282 285 289 284 284 286 290 288 280 274 270 266 253 245 243 246 245 256 256 260 262
142 213 195 201 229 191 307 273 217 212 212 243 268 285 286 307 323 340 346 350 352 353 354 355 350 341 334 321 301 292 289 287 293 293 303 308 289 278 271 261 248 239 239 246 246 256 255 255 260
171 188 180 176 247 237 185 272 227 221 226 245 273 295 301 305 327 338 343 348 352 357 358 359 357 352 346 333 307 312 318 313 300 319 330 325 328 310 287 260 252 235 232 237 245 251 256 260 261
Height
1509 1512 1515 1518 1532 1539 1542 1533 1525 1525 1525 1525 1522 1523 1528 1532 1535 1543 1538 1539 1540 1541 1542 1543 1545 1547 1547 1547 1548 1548 1548 1548 1548 1548 1548 1548 1548 1548 1549 1549 1549 1549 1550 1550 1549 1549 1548 1547 1547
1510 1513 1517 1518 1540 1550 1544 1530 1525 1525 1525 1525 1526 1528 1530 1537 1536 1538 1539 1540 1540 1541 1542 1544 1545 1546 1548 1548 1549 1549 1549 1549 1550 1550 1550 1550 1550 1550 1550 1549 1549 1551 1551 1551 1550 1550 1550 1549 1549
1511 1514 1516 1524 1543 1544 1538 1526 1526 1525 1525 1525 1527 1530 1534 1538 1538 1539 1540 1540 1540 1541 1542 1544 1546 1547 1547 1549 1549 1550 1550 1550 1550 1551 1551 1552 1551 1552 1552 1552 1552 1553 1553 1553 1552 1552 1551 1551 1550
1513 1516 1520 1530 1533 1528 1527 1526 1525 1526 1526 1527 1528 1532 1537 1538 1539 1540 1540 1540 1541 1542 1543 1544 1545 1546 1548 1549 1550 1550 1552 1552 1551 1551 1551 1553 1552 1553 1553 1554 1554 1554 1554 1554 1553 1553 1553 1552 1552
1513 1515 1530 1535 1529 1526 1526 1526 1526 1526 1528 1529 1529 1536 1538 1540 1540 1541 1540 1541 1542 1542 1544 1544 1546 1547 1548 1549 1550 1551 1551 1552 1552 1552 1552 1553 1553 1553 1554 1555 1555 1555 1555 1555 1554 1554 1554 1554 1553
1514 1517 1536 1540 1531 1528 1528 1527 1527 1528 1529 1530 1532 1536 1540 1541 1541 1542 1541 1542 1542 1543 1544 1545 1546 1548 1548 1549 1551 1551 1552 1552 1552 1553 1553 1553 1553 1554 1554 1555 1555 1556 1556 1556 1555 1555 1554 1554 1554
1515 1524 1535 1536 1533 1531 1531 1529 1530 1531 1531 1532 1533 1538 1541 1542 1542 1543 1543 1543 1542 1543 1544 1545 1546 1548 1549 1550 1550 1551 1552 1553 1552 1553 1553 1553 1553 1553 1554 1554 1555 1555 1556 1556 1556 1555 1555 1555 1555
1516 1521 1531 1538 1534 1535 1532 1531 1533 1532 1534 1534 1535 1538 1541 1542 1543 1544 1544 1544 1545 1545 1545 1546 1546 1547 1548 1549 1550 1549 1550 1551 1553 1552 1553 1552 1553 1553 1553 1554 1554 1555 1555 1556 1556 1556 1556 1555 1555
1518 1532 1541 1537 1534 1535 1533 1533 1535 1536 1535 1536 1537 1538 1540 1542 1543 1544 1545 1545 1545 1546 1547 1547 1546 1546 1547 1547 1548 1548 1549 1550 1550 1551 1551 1552 1552 1552 1552 1553 1553 1554 1554 1555 1555 1556 1556 1556 1556
1520 1537 1536 1536 1535 1536 1535 1535 1536 1537 1537 1539 1540 1541 1542 1542 1543 1544 1545 1545 1545 1546 1546 1547 1547 1548 1547 1546 1546 1546 1547 1547 1548 1549 1550 1550 1551 1551 1551 1552 1552 1553 1553 1553 1554 1555 1555 1555 1555
1525 1534 1534 1536 1536 1536 1536 1537 1538 1538 1539 1540 1541 1542 1543 1543 1543 1543 1544 1544 1545 1545 1545 1545 1545 1546 1546 1545 1545 1545 1545 1545 1546 1547 1548 1548 1549 1549 1549 1550 1550 1551 1551 1551 1552 1552 1553 1554 1554
1530 1533 1533 1535 1536 1537 1538 1539 1539 1539 1540 1540 1541 1542 1542 1542 1542 1542 1543 1543 1543 1543 1543 1543 1543 1543 1543 1543 1543 1543 1543 1543 1543 1544 1545 1544 1546 1546 1546 1547 1548 1548 1549 1549 1550 1551 1551 1551 1552
1530 1534 1535 1536 1537 1539 1539 1540 1541 1537 1539 1539 1540 1540 1541 1540 1541 1540 1540 1540 1540 1539 1540 1540 1539 1539 1539 1539 1539 1540 1540 1541 1540 1541 1541 1542 1542 1543 1544 1544 1545 1545 1546 1546 1547 1548 1549 1549 1550
1531 1534 1537 1539 1540 1541 1541 1542 1541 1537 1537 1537 1537 1538 1539 1539 1539 1538 1538 1537 1537 1537 1536 1536 1535 1535 1534 1534 1534 1535 1535 1535 1536 1537 1538 1538 1538 1539 1540 1540 1541 1541 1542 1543 1544 1545 1546 1546 1547
1532 1537 1539 1541 1541 1543 1543 1542 1540 1537 1536 1536 1535 1536 1537 1538 1537 1536 1535 1534 1534 1533 1532 1531 1531 1531 1530 1529 1529 1529 1530 1530 1530 1531 1532 1533 1534 1534 1535 1535 1536 1537 1538 1539 1539 1540 1541 1542 1543
1536 1540 1545 1543 1543 1544 1544 1547 1536 1537 1536 1535 1535 1534 1534 1535 1535 1533 1531 1529 1528 1527 1526 1526 1525 1526 1525 1524 1523 1522 1522 1523 1524 1525 1526 1527 1528 1529 1530 1530 1530 1532 1533 1534 1534 1535 1536 1537 1538
1548 1557 1545 1545 1545 1546 1547 1545 1536 1537 1535 1532 1531 1532 1531 1528 1529 1528 1527 1525 1524 1523 1522 1522 1521 1521 1520 1519 1518 1517 1516 1516 1516 1517 1518 1520 1521 1522 1523 1524 1525 1526 1527 1528 1530 1530 1531 1532 1532
1554 1549 1546 1546 1551 1547 1549 1547 1537 1533 1534 1529 1528 1528 1527 1526 1525 1525 1524 1523 1521 1520 1519 1518 1518 1517 1516 1514 1513 1511 1510 1510 1510 1510 1510 1511 1513 1514 1515 1517 1519 1521 1521 1522 1523 1524 1525 1526 1528
1544 1546 1548 1550 1552 1548 1549 1550 1535 1531 1530 1528 1527 1527 1527 1526 1525 1524 1523 1521 1519 1517 1515 1514 1512 1511 1509 1507 1505 1504 1502 1502 1502 1502 1503 1503 1504 1506 1507 1509 1511 1514 1515 1516 1517 1518 1518 1521 1523
1547 1550 1556 1554 1552 1551 1552 1545 1534 1531 1529 1528 1528 1527 1526 1524 1523 1521 1519 1516 1514 1512 1510 1507 1506 1504 1502 1500 1498 1496 1494 1492 1491 1493 1494 1495 1497 1498 1499 1501 1503 1506 1508 1509 1510 1512 1513 1514 1516
1557 1557 1558 1559 1556 1555 1556 1544 1535 1531 1530 1529 1528 1526 1524 1522 1519 1516 1513 1511 1507 1504 1501 1498 1495 1493 1491 1490 1487 1486 1485 1483 1481 1482 1483 1486 1488 1489 1490 1492 1494 1497 1500 1502 1504 1505 1507 1508 1509
1561 1557 1558 1560 1570 1574 1561 1569 1539 1531 1528 1527 1526 1525 1522 1519 1516 1512 1508 1503 1499 1495 1491 1488 1485 1482 1480 1480 1477 1476 1475 1473 1473 1472 1473 1475 1478 1479 1480 1482 1485 1487 1490 1493 1496 1500 1500 1501 1502
1559 1558 1559 1562 1581 1583 1566 1581 1540 1531 1527 1524 1523 1521 1519 1516 1512 1508 1504 1498 1495 1490 1484 1479 1476 1473 1471 1469 1468 1466 1465 1466 1465 1464 1464 1465 1468 1470 1472 1473 1476 1478 1481 1484 1488 1491 1493 1495 1494
1556 1560 1564 1571 1588 1596 1566 1571 1547 1530 1522 1522 1519 1516 1514 1511 1509 1505 1501 1495 1490 1485 1480 1474 1469 1466 1464 1461 1461 1459 1459 1459 1458 1458 1456 1457 1458 1462 1464 1466 1467 1470 1472 1475 1478 1482 1485 1487 1489
1560 1570 1594 1587 1593 1579 1582 1573 1536 1521 1519 1519 1517 1513 1512 1510 1507 1501 1496 1493 1489 1483 1477 1471 1465 1459 1457 1455 1453 1453 1453 1453 1451 1451 1450 1449 1450 1453 1456 1458 1460 1461 1464 1468 1470 1474 1476 1479 1481
1563 1574 1587 1586 1600 1582 1569 1558 1530 1518 1517 1517 1514 1512 1510 1508 1504 1500 1497 1492 1485 1478 1472 1466 1460 1454 1451 1447 1446 1446 1448 1446 1446 1446 1444 1444 1444 1446 1449 1451 1453 1454 1457 1461 1463 1466 1468 1471 1473
1560 1576 1564 1564 1576 1572 1571 1544 1521 1518 1516 1513 1512 1510 1506 1504 1501 1498 1494 1488 1482 1475 1469 1462 1456 1449 1445 1441 1440 1441 1442 1442 1442 1441 1440 1439 1439 1440 1441 1443 1445 1448 1451 1454 1457 1459 1461 1464 1465
1558 1561 1565 1569 1594 1587 1561 1561 1535 1523 1513 1510 1508 1506 1503 1502 1498 1495 1489 1484 1477 1472 1466 1459 1452 1445 1439 1437 1437 1438 1439 1439 1439 1438 1436 1435 1434 1434 1435 1437 1439 1442 1446 1449 1452 1454 1455 1457 1458
1559 1560 1562 1566 1560 1580 1563 1544 1516 1511 1508 1508 1505 1503 1500 1497 1493 1490 1485 1480 1475 1470 1463 1456 1449 1442 1437 1435 1435 1436 1437 1437 1437 1436 1433 1431 1430 1430 1431 1433 1435 1439 1442 1445 1447 1449 1450 1451 1452
1552 1556 1557 1560 1571 1556 1563 1540 1502 1503 1502 1503 1500 1497 1494 1492 1489 1486 1482 1478 1473 1467 1461 1455 1447 1441 1437 1436 1435 1436 1436 1435 1434 1433 1431 1430 1429 1428 1429 1431 1432 1435 1437 1440 1442 1444 1446 1446 1446